Regional Weather Roundup
Issued by NWS Jackson, KY

Home | Current Version | Previous Version | Text Only | Print | Product List | Glossary Off
Versions: 1 2 3 4 5 6 7 8 9 10 11 12 13 14 15 16 17 18 19 20 21 22 23 24 25 26 27 28

000
ASUS43 KJKL 230510
RWRJKL

EAST KENTUCKY HOURLY WEATHER ROUNDUP
NATIONAL WEATHER SERVICE JACKSON KY
100 AM EDT THU MAR 23 2017

NOTE: "FAIR" INDICATES FEW OR NO CLOUDS BELOW 12,000 FEET WITH
NO SIGNIFICANT WEATHER AND/OR OBSTRUCTIONS TO VISIBILITY.

* THESE REPORTS ARE NOT UNDER NWS QUALITY CONTROL AND MAY NOT
  REPORT WEATHER SUCH AS PRECIPITATION AND FOG.

KYZ079-080-083-085-087-088-110-112-115-119-120-230600
...EASTERN KENTUCKY...

CITY           SKY/WX    TMP DP  RH WIND       PRES   REMARKS
JACKSON        CLEAR     35  14  42 VRB6      30.40F WCI  30
LONDON         PTCLDY    38  14  37 NE5       30.38F WCI  34
SOMERSET*      CLEAR     36  19  51 N5        30.40F WCI  32
MONTICELLO*    PTCLDY    37  23  56 W7        30.40F WCI  32
WILLIAMSBURG*  PTCLDY    39  16  38 NE3       30.37F
MIDDLESBORO*   PTCLDY    37  28  70 CALM      30.39S
HARLAN APT*    CLEAR     34  19  55 CALM      30.37F
PIKE CO APT*     N/A     33  15  46 NE6       30.41F WCI  28
BIG SANDY APT* CLEAR     32  16  51 NE7       30.42F WCI  26
MOREHEAD APT*  CLEAR     34  14  44 E7        30.45F WCI  28
ASHLAND*       CLEAR     34  18  51 NE3       30.46F
$$

KYZ035-036-041-042-044-050-067-078-099-230600
...CENTRAL KENTUCKY...

CITY           SKY/WX    TMP DP  RH WIND       PRES   REMARKS
MT STERLING*   CLEAR     32  19  59 E7        30.44F WCI  26
FLEMING/MASON* CLOUDY    31  17  57 NE8       30.47S WCI  23
DANVILLE*      PTCLDY    32  21  64 NE3       30.41F
LEXINGTON      CLEAR     31  19  61 NE9       30.42F WCI  23
FRANKFORT      CLEAR     34  17  50 NE8       30.43F WCI  27
LOUISVILLE     PTCLDY    38  18  44 E9        30.43F WCI  31
LEBANON*         N/A     34  19  55 NE5       30.41F WCI  30
GLASGOW*       CLEAR     37  22  56 NE9       30.38F WCI  30
BOWLING GREEN  PTCLDY    37  22  54 NE6       30.39F WCI  32
$$

KYZ091>093-OHZ055-061-077-WVZ005-015-034-035-042-230600
...SOUTHERN OHIO/WEST VIRGINIA...

CITY           SKY/WX    TMP DP  RH WIND       PRES   REMARKS
COVINGTON      PTCLDY    32  19  58 E10       30.46S WCI  24
COLUMBUS       CLOUDY    27  15  61 NE8       30.51S WCI  19
DAYTON         PTCLDY    26  17  68 E7        30.49S WCI  18
WILMINGTON     CLEAR     27  21  78 NE9       30.47S WCI  18
HUNTINGTON     CLEAR     34  14  43 NE6       30.46F WCI  29
CHARLESTON     CLOUDY    30  19  63 CALM      30.46S
PINEVILLE*     CLOUDY    27  19  70 MISG      30.46S
BECKLEY        CLOUDY    26  13  57 CALM      30.39S
BLUEFIELD      CLEAR     30  11  45 E3        30.38R
LOGAN CO APT*    N/A     34  14  44 CALM      30.41F
$$

VAZ002-007-008-TNZ017-027-036-066-071-230600
...SOUTHWEST VIRGINIA/EAST TENNESSEE...

CITY           SKY/WX    TMP DP  RH WIND       PRES   REMARKS
WISE*          CLEAR     34  14  44 CALM      30.37S
JONESVILLE*      N/A     32  23  69 CALM      30.39S
ABINGDON*      CLEAR     39  18  41 E8        30.37R WCI  34
BRISTOL        CLEAR     36  20  52 NE3       30.37R
MORRISTOWN*    CLEAR     43  16  33 E8        30.34S
SEVIERVILLE*   CLEAR     43  19  39 E5        30.33S
KNOXVILLE      PTCLDY    45  21  38 NE8       30.33R
LAFOLLETTE*    CLEAR     39  25  56 CALM      30.39S
OAK RIDGE      PTCLDY    47  16  29 VRB5      30.36S
CROSSVILLE     CLOUDY    40  19  43 NE7       30.33S
NASHVILLE      CLOUDY    45  21  38 NE9       30.35F
$$

...KEY TO REMARKS...
VSB - VISIBILITY IN MILES
WCI - WIND CHILL INDEX
HX  - HEAT INDEX

$$




USA.gov is the U.S. government's official web portal to all federal, state and local government web resources and services.